Zurück zum Katalog

THORAD DELTA 1 DEB

AktivLEO
NORAD 9699·DEBRIS·🇺🇸 United States

Gestartet Nov 15, 1974 von Vandenberg Space Force Base

Loading…

Nächste Überflüge (nächste 24 Stunden)

TLE

AktuellSource: Space-Track

Epoche: Sep 13, 2026, 19:10 UTC

1 09699U 74089DY  26256.79919698 -.00000030  00000-0  93785-4 0  9990
2 09699 101.6463   3.7377 0124306 151.4577   0.5698 12.29332720328360

Verfolge THORAD DELTA 1 DEB in Echtzeit mit AllMySat

Download on the App Store